Dunkirk, NY

7:51 AM EST on December 04, 2016 (GMT -0500)
Chautauqua County-Dunkirk

Weather History for KDKK - February, 2014

Change the Weather History Date:

Sunday, February 23, 2014

  Actual Average Record
Temperature  
Mean Temperature 32 °F -  
Max Temperature 37 °F 40 °F 62 °F (1943)
Min Temperature 25 °F 24 °F -9 °F (2015)
Degree Days  
Heating Degree Days 34    
Moisture  
Dew Point 22 °F    
Average Humidity 66    
Maximum Humidity 78    
Minimum Humidity 54    
Precipitation  
Precipitation 0.00 in - - ()
Sea Level Pressure  
Sea Level Pressure 30.00 in    
Wind  
Wind Speed 13 mph (WSW)    
Max Wind Speed 21 mph    
Max Gust Speed 31 mph    
Visibility 10 miles    
Events      
Averages and records for this station are not official NWS values.
T = Trace of Precipitation, MM = Missing Value Source: NWS Daily Summary

Daily Weather History Graph

Daily Weather History Graph

Search for Another Location

Airport or City:

Trip Planner

Search our weather history database for the weather conditions in past years. The results will help you decide how hot, cold, wet, or windy it might be!

Date:

Astronomy

Feb. 23, 2014 Rise Set
Actual Time 7:02 AM EST 5:59 PM EST
Civil Twilight 6:33 AM EST 6:27 PM EST
Nautical Twilight 6:00 AM EST 7:00 PM EST
Astronomical Twilight 5:28 AM EST 7:33 PM EST
Moon 2:02 AM EST (2/23) 11:56 AM EST (2/23)
Length of Visible Light 11h 54m
Length of Day
10h 57m
Last Quarter, 39% of the Moon is Illuminated
Feb 23
Last Quarter
Mar 1
New
Mar 8
First Quarter
Mar 16
Full
Mar 23
Last Quarter

Hourly Weather History & Observations

Time (EST) Temp. Windchill Dew Point Humidity Pressure Visibility Wind Dir Wind Speed Gust Speed Precip Events Conditions
12:53 AM 37.0 °F 28.5 °F 23.0 °F 57% 29.98 in 10.0 mi SW 13.8 mph - N/A   Overcast
1:53 AM 36.0 °F 28.0 °F 25.0 °F 64% 29.99 in 10.0 mi SW 11.5 mph 20.7 mph N/A   Overcast
2:53 AM 35.1 °F 26.4 °F 19.9 °F 54% 29.99 in 10.0 mi WSW 12.7 mph - N/A   Overcast
3:53 AM 35.1 °F 26.9 °F 21.9 °F 59% 29.97 in 10.0 mi WSW 11.5 mph - N/A   Overcast
4:53 AM 35.1 °F 27.4 °F 19.9 °F 54% 29.97 in 10.0 mi SW 10.4 mph - N/A   Overcast
5:53 AM 34.0 °F 29.8 °F 21.9 °F 61% 29.99 in 10.0 mi WSW 4.6 mph - N/A   Overcast
6:53 AM 33.1 °F 25.5 °F 27.0 °F 78% 29.99 in 10.0 mi West 9.2 mph - N/A   Scattered Clouds
7:08 AM 33.1 °F 23.9 °F 27.0 °F 78% 29.98 in 10.0 mi WSW 12.7 mph 20.7 mph N/A   Mostly Cloudy
7:33 AM 33.1 °F 25.5 °F 26.1 °F 75% 29.99 in 10.0 mi WSW 9.2 mph 19.6 mph N/A   Partly Cloudy
7:53 AM 33.1 °F 25.5 °F 25.0 °F 72% 30.02 in 10.0 mi WSW 9.2 mph - N/A   Scattered Clouds
8:08 AM 33.1 °F 23.9 °F 25.0 °F 72% 30.00 in 10.0 mi WSW 12.7 mph 23.0 mph N/A   Mostly Cloudy
8:53 AM 33.1 °F 22.6 °F 24.1 °F 70% 30.03 in 10.0 mi WSW 16.1 mph 21.9 mph N/A   Mostly Cloudy
9:39 AM 34.0 °F 23.8 °F 21.9 °F 61% 30.00 in 10.0 mi SW 16.1 mph - N/A   Scattered Clouds
9:53 AM 34.0 °F 23.4 °F 21.0 °F 59% 30.02 in 10.0 mi WSW 17.3 mph 25.3 mph N/A   Clear
10:33 AM 35.1 °F 26.9 °F 23.0 °F 61% 30.01 in 10.0 mi WSW 11.5 mph 25.3 mph N/A   Mostly Cloudy
10:53 AM 33.1 °F 24.4 °F 24.1 °F 70% 30.03 in 10.0 mi West 11.5 mph 26.5 mph N/A   Overcast
11:53 AM 34.0 °F 22.4 °F 21.9 °F 61% 30.03 in 10.0 mi WSW 20.7 mph 31.1 mph N/A   Overcast
12:23 PM 33.1 °F 21.9 °F 23.0 °F 66% 29.99 in 10.0 mi West 18.4 mph 24.2 mph N/A   Partly Cloudy
12:53 PM 33.1 °F 21.5 °F 21.9 °F 64% 29.99 in 10.0 mi West 19.6 mph 28.8 mph N/A   Clear
1:53 PM 33.1 °F 22.2 °F 19.9 °F 59% 29.98 in 10.0 mi WSW 17.3 mph 27.6 mph N/A   Clear
2:53 PM 32.0 °F 20.5 °F 21.0 °F 64% 29.98 in 10.0 mi WSW 18.4 mph 28.8 mph N/A   Clear
3:53 PM 30.9 °F 19.4 °F 19.9 °F 64% 29.99 in 10.0 mi West 17.3 mph 26.5 mph N/A   Clear
4:53 PM 30.0 °F 17.9 °F 21.0 °F 69% 29.99 in 10.0 mi WSW 18.4 mph 26.5 mph N/A   Clear
5:53 PM 28.0 °F 15.7 °F 19.9 °F 72% 30.01 in 10.0 mi WSW 17.3 mph 24.2 mph N/A   Scattered Clouds
6:53 PM 27.0 °F 14.7 °F 19.9 °F 75% 30.01 in 10.0 mi WSW 16.1 mph - N/A   Clear
7:53 PM 27.0 °F 16.7 °F 19.9 °F 75% 30.01 in 10.0 mi WSW 11.5 mph 21.9 mph N/A   Clear
8:53 PM 27.0 °F 14.7 °F 19.0 °F 72% 30.00 in 10.0 mi WSW 16.1 mph 26.5 mph N/A   Clear
9:53 PM 27.0 °F 16.1 °F 19.0 °F 72% 30.01 in 10.0 mi WSW 12.7 mph 28.8 mph N/A   Clear
10:53 PM 26.1 °F 13.6 °F 18.0 °F 71% 30.00 in 10.0 mi WSW 16.1 mph 26.5 mph N/A   Clear
11:53 PM 25.0 °F 13.6 °F 14.0 °F 63% 30.01 in 10.0 mi West 12.7 mph 25.3 mph N/A   Clear